Total_Precipitation_Accumulation
0.79 0.73 0.63 0.53 0.49 0.48 0.49 0.54 0.62 0.57 0.43 0.32 0.31 0.33 0.37 0.41 0.48 0.49 0.48 0.60 0.65 0.67 0.71 0.73 0.72 0.68 0.64 0.63 0.65 0.67 0.70 0.70 0.71 0.74 0.74 0.74 0.81 0.94
0.76 0.74 0.70 0.62 0.57 0.54 0.56 0.61 0.68 0.75 0.69 0.51 0.43 0.45 0.50 0.54 0.62 0.58 0.55 0.63 0.62 0.63 0.65 0.64 0.59 0.54 0.51 0.50 0.52 0.57 0.60 0.63 0.66 0.73 0.79 0.83 0.92 1.05
0.71 0.69 0.69 0.65 0.63 0.61 0.63 0.67 0.74 0.80 0.84 0.72 0.61 0.58 0.58 0.56 0.55 0.49 0.45 0.45 0.44 0.51 0.52 0.50 0.45 0.41 0.41 0.43 0.45 0.47 0.50 0.54 0.59 0.65 0.73 0.79 0.83 0.87
0.66 0.69 0.70 0.68 0.68 0.65 0.66 0.68 0.72 0.74 0.77 0.74 0.63 0.55 0.50 0.45 0.41 0.36 0.32 0.29 0.27 0.35 0.37 0.37 0.36 0.34 0.34 0.35 0.37 0.39 0.44 0.48 0.51 0.53 0.57 0.61 0.64 0.67
0.59 0.60 0.60 0.61 0.63 0.61 0.61 0.62 0.62 0.61 0.60 0.56 0.50 0.43 0.38 0.34 0.30 0.25 0.20 0.17 0.16 0.18 0.21 0.21 0.22 0.22 0.24 0.25 0.27 0.28 0.29 0.30 0.31 0.32 0.36 0.44 0.52 0.54
0.55 0.56 0.57 0.58 0.60 0.61 0.62 0.61 0.59 0.56 0.53 0.49 0.45 0.38 0.31 0.26 0.22 0.17 0.14 0.11 0.09 0.08 0.09 0.09 0.09 0.09 0.09 0.10 0.10 0.10 0.11 0.14 0.19 0.22 0.24 0.28 0.36 0.44
0.58 0.62 0.65 0.71 0.71 0.66 0.59 0.54 0.50 0.49 0.48 0.46 0.39 0.31 0.24 0.19 0.15 0.12 0.11 0.09 0.07 0.04 0.04 0.03 0.03 0.02 0.02 0.02 0.03 0.03 0.05 0.09 0.15 0.20 0.24 0.28 0.30 0.36
0.59 0.60 0.62 0.67 0.64 0.62 0.56 0.50 0.47 0.48 0.46 0.40 0.31 0.22 0.14 0.11 0.10 0.10 0.11 0.11 0.07 0.02 0.02 0.01 0.01 0.01 0.00 0.00 0.01 0.02 0.04 0.08 0.12 0.17 0.21 0.24 0.24 0.26
0.56 0.52 0.46 0.42 0.42 0.37 0.40 0.43 0.43 0.40 0.34 0.27 0.20 0.14 0.11 0.10 0.12 0.14 0.12 0.12 0.08 0.02 0.03 0.02 0.00 0.00 0.00 0.00 0.00 0.01 0.02 0.04 0.08 0.12 0.15 0.18 0.21 0.22
0.48 0.43 0.36 0.29 0.24 0.23 0.27 0.31 0.24 0.19 0.17 0.15 0.12 0.11 0.11 0.11 0.13 0.17 0.16 0.12 0.05 0.02 0.01 0.02 0.00 0.00 0.00 0.00 0.00 0.00 0.01 0.03 0.05 0.08 0.12 0.16 0.20 0.23
0.37 0.33 0.30 0.25 0.26 0.27 0.23 0.19 0.15 0.13 0.13 0.13 0.14 0.14 0.14 0.12 0.10 0.11 0.13 0.14 0.09 0.03 0.02 0.01 0.00 0.00 0.00 0.00 0.00 0.00 0.00 0.01 0.02 0.04 0.07 0.10 0.13 0.17
0.25 0.24 0.25 0.24 0.28 0.29 0.21 0.16 0.13 0.10 0.11 0.11 0.10 0.09 0.09 0.08 0.08 0.08 0.14 0.28 0.22 0.11 0.02 0.05 0.06 0.08 0.13 0.02 0.00 0.00 0.00 0.00 0.00 0.01 0.03 0.05 0.09 0.13
0.20 0.19 0.19 0.25 0.26 0.25 0.22 0.16 0.15 0.16 0.13 0.11 0.10 0.10 0.08 0.07 0.06 0.05 0.08 0.27 0.39 0.24 0.04 0.19 0.28 0.14 0.22 0.09 0.00 0.00 0.00 0.00 0.01 0.01 0.01 0.04 0.08 0.19
0.16 0.16 0.17 0.24 0.27 0.26 0.22 0.19 0.20 0.19 0.13 0.12 0.12 0.11 0.09 0.07 0.06 0.05 0.05 0.07 0.16 0.22 0.11 0.26 0.50 0.31 0.35 0.22 0.04 0.00 0.00 0.00 0.02 0.03 0.04 0.07 0.13 0.19
0.18 0.19 0.20 0.22 0.23 0.22 0.22 0.23 0.21 0.16 0.13 0.12 0.11 0.09 0.08 0.08 0.08 0.08 0.06 0.05 0.04 0.04 0.05 0.08 0.27 0.33 0.43 0.40 0.19 0.05 0.03 0.01 0.01 0.05 0.10 0.14 0.18 0.23
0.24 0.23 0.23 0.22 0.22 0.20 0.20 0.20 0.18 0.15 0.13 0.13 0.11 0.10 0.10 0.10 0.09 0.08 0.09 0.08 0.08 0.04 0.02 0.02 0.07 0.26 0.38 0.25 0.28 0.19 0.09 0.12 0.08 0.12 0.16 0.15 0.17 0.26
0.29 0.26 0.24 0.21 0.19 0.17 0.16 0.17 0.16 0.14 0.13 0.12 0.14 0.14 0.12 0.10 0.08 0.07 0.10 0.12 0.12 0.07 0.04 0.02 0.02 0.05 0.14 0.21 0.23 0.12 0.07 0.12 0.19 0.24 0.27 0.22 0.13 0.21
0.38 0.30 0.23 0.19 0.17 0.16 0.16 0.16 0.15 0.14 0.13 0.14 0.15 0.15 0.16 0.14 0.11 0.08 0.08 0.12 0.13 0.08 0.06 0.04 0.05 0.10 0.07 0.04 0.08 0.14 0.16 0.19 0.19 0.20 0.27 0.42 0.27 0.20
0.35 0.26 0.21 0.18 0.17 0.18 0.19 0.20 0.18 0.15 0.16 0.18 0.19 0.20 0.21 0.18 0.14 0.12 0.10 0.11 0.10 0.07 0.06 0.06 0.14 0.36 0.39 0.15 0.02 0.10 0.27 0.32 0.26 0.26 0.31 0.51 0.60 0.41
0.25 0.19 0.17 0.17 0.19 0.21 0.22 0.23 0.23 0.22 0.21 0.19 0.20 0.22 0.25 0.24 0.19 0.15 0.14 0.15 0.16 0.13 0.08 0.05 0.10 0.36 0.68 0.54 0.30 0.09 0.12 0.29 0.52 0.58 0.42 0.34 0.36 0.29
0.16 0.14 0.16 0.19 0.21 0.24 0.25 0.27 0.28 0.28 0.26 0.26 0.25 0.25 0.28 0.31 0.24 0.17 0.17 0.15 0.17 0.17 0.14 0.07 0.05 0.14 0.37 0.56 0.40 0.09 0.05 0.11 0.36 0.71 0.74 0.60 0.37 0.19
0.17 0.17 0.18 0.21 0.24 0.26 0.28 0.29 0.31 0.30 0.30 0.31 0.30 0.29 0.30 0.34 0.32 0.24 0.21 0.21 0.18 0.17 0.16 0.09 0.06 0.11 0.27 0.48 0.34 0.11 0.04 0.03 0.06 0.14 0.40 0.84 1.24 1.16
0.22 0.22 0.23 0.26 0.29 0.30 0.31 0.31 0.29 0.27 0.28 0.32 0.32 0.31 0.32 0.33 0.28 0.26 0.25 0.27 0.30 0.24 0.20 0.15 0.10 0.11 0.15 0.22 0.26 0.17 0.07 0.04 0.04 0.06 0.13 0.27 0.55 0.81